Wind_Speed
30 30 29 27 26 25 25 25 23 22 21 20 20 18 17 16 16 17 17 17 17 18 16 15 14 13 13 13 14 16 17 17 17 15 15 15 15 16 17 17 16 14
28 28 27 25 25 25 25 24 23 21 20 19 19 18 18 16 16 17 17 17 17 17 17 15 14 14 16 16 17 19 19 18 17 15 14 14 14 15 16 17 18 18
26 26 26 25 25 25 24 23 22 20 20 19 20 19 18 17 16 18 18 17 17 18 17 15 15 16 17 16 17 19 20 19 17 15 14 14 14 15 14 15 17 19
26 26 25 25 24 23 23 24 23 22 21 21 21 20 18 17 17 18 19 18 18 17 16 15 16 16 16 15 16 19 20 19 17 16 17 17 15 15 14 14 16 18
26 26 25 24 23 22 24 25 24 23 23 23 22 19 18 18 19 19 19 18 17 16 15 15 15 16 16 16 16 17 19 19 17 17 17 16 14 14 14 14 15 16
26 24 24 24 23 24 25 25 24 24 24 23 21 18 18 19 20 19 19 18 17 17 16 16 17 17 16 16 16 17 18 19 17 16 15 14 13 12 12 13 15 15
26 25 25 25 24 24 24 23 24 24 23 22 19 17 19 20 19 19 19 19 18 18 17 17 17 17 16 15 16 17 17 17 15 14 14 13 12 12 11 11 13 13
25 25 25 25 24 22 21 22 24 24 22 20 18 17 19 19 18 19 18 17 18 18 17 17 17 17 16 16 16 16 15 15 14 14 14 13 12 12 11 9 9 10
22 23 23 23 24 22 21 23 24 23 21 20 19 18 18 17 17 18 17 17 19 19 17 17 17 16 16 15 14 14 15 16 16 15 15 14 13 12 10 9 7 8
22 23 23 22 21 21 22 23 22 22 22 20 20 20 18 17 17 16 16 18 19 18 16 16 16 16 17 16 13 13 16 17 16 15 14 13 13 13 12 10 9 9
22 21 20 20 19 18 20 21 21 21 21 19 20 21 19 18 17 17 17 18 18 18 17 16 15 16 18 17 14 13 16 17 16 14 13 13 13 13 12 12 11 10
21 19 18 20 20 18 19 20 20 18 17 18 20 22 21 19 19 19 19 18 18 18 18 17 16 17 17 17 16 15 15 15 15 14 13 12 13 12 12 12 12 11
22 21 21 22 22 21 21 21 20 18 18 19 20 22 22 21 21 20 19 19 19 19 19 18 17 18 17 17 16 15 15 14 13 13 12 12 11 11 11 11 11 11
21 21 21 21 22 22 22 20 20 20 22 22 22 23 24 22 22 22 20 19 19 19 19 19 19 18 18 17 16 15 15 15 13 12 12 12 11 11 11 10 11 11
20 20 20 21 22 21 20 19 20 22 23 22 23 24 24 22 22 23 21 19 19 18 18 19 19 18 18 17 16 15 15 14 13 12 11 12 12 12 12 11 12 12
18 18 19 21 20 18 17 17 20 22 22 22 23 23 23 22 22 22 22 20 19 18 17 18 17 17 18 17 16 15 15 13 12 12 11 11 12 13 13 12 12 12
16 16 17 20 20 18 16 15 18 21 22 22 22 22 22 21 21 22 22 21 20 19 18 17 17 16 17 16 16 16 15 13 13 12 12 12 13 13 14 14 13 12
15 16 16 18 20 18 16 15 17 18 20 20 20 21 21 22 22 22 21 20 20 19 18 17 17 17 16 14 14 14 14 13 13 12 11 12 12 12 13 14 15 14
14 15 15 17 19 18 16 15 14 15 16 17 19 20 21 21 21 20 20 19 19 18 17 17 17 17 16 14 13 13 13 13 12 11 11 10 10 11 13 15 16 16
12 12 12 13 15 16 17 16 15 14 14 14 15 17 18 19 18 18 18 18 18 17 17 17 17 17 15 14 13 13 14 13 12 12 11 9 10 13 15 15 16 17
10 11 10 10 11 13 16 17 16 14 13 12 12 13 14 15 16 16 17 17 17 17 16 17 17 15 14 13 13 14 14 13 13 14 12 9 10 14 15 15 15 16
5 6 6 6 7 9 12 13 13 12 11 11 11 12 13 14 14 15 16 17 17 16 16 16 16 14 14 14 14 15 14 14 13 14 13 11 11 14 15 16 16 17
10 7 4 2 3 5 7 8 8 7 8 10 11 13 14 15 15 15 15 16 16 17 17 17 16 15 15 15 15 16 15 14 14 14 14 14 13 14 15 16 18 19
22 18 16 12 8 4 3 5 7 7 7 8 9 11 14 15 15 15 16 17 17 17 17 16 15 15 15 15 16 17 15 13 14 17 18 17 16 15 15 17 19 20
24 23 23 22 19 16 12 9 6 8 9 10 9 10 12 13 14 14 15 15 15 15 14 13 14 16 17 16 16 16 15 14 16 19 20 19 19 18 18 18 19 19
21 22 22 22 21 19 18 17 15 10 7 9 12 12 11 11 13 13 14 14 13 13 13 14 16 18 18 17 17 17 16 15 17 21 23 21 21 21 21 21 20 18
Wind_Direction
171 171 172 172 170 169 165 162 161 160 159 158 159 160 158 156 157 152 145 144 145 147 148 146 147 149 147 144 145 145 136 126 121 124 124 117 111 107 103 100 100 102
174 174 174 172 170 170 168 167 167 166 166 167 167 165 164 164 165 162 154 147 147 149 150 148 146 145 141 135 135 138 136 129 124 127 128 122 118 114 107 103 100 97
177 176 175 173 171 171 171 170 170 170 170 169 168 167 168 168 169 168 162 152 147 149 151 150 145 143 141 136 135 137 135 130 126 126 125 122 121 118 114 110 105 101
179 178 177 175 174 173 174 172 169 169 169 168 168 169 170 170 168 167 164 158 152 150 151 152 148 147 147 143 139 137 134 129 125 123 118 115 118 119 119 119 113 109
179 180 179 177 177 176 175 173 170 168 169 169 170 172 173 171 166 162 160 160 159 156 155 154 154 153 149 145 141 138 137 132 126 125 120 115 115 116 121 128 126 121
178 179 178 178 179 178 175 174 171 169 170 170 170 173 172 167 163 162 161 161 160 158 154 152 152 150 147 142 137 135 136 134 129 127 124 123 125 124 126 131 134 132
179 179 178 179 179 176 175 175 173 171 170 168 169 171 169 165 164 165 164 163 162 161 158 155 152 151 149 145 139 136 137 136 135 133 130 131 136 140 140 136 134 131
177 177 177 177 172 169 174 176 173 170 169 168 167 170 173 171 168 167 165 165 166 165 164 160 156 154 152 152 150 148 147 146 146 147 145 144 146 147 147 146 142 129
166 167 165 163 163 166 173 174 171 170 172 170 168 170 176 175 169 167 167 167 169 169 168 165 163 161 159 160 163 163 163 161 158 158 158 156 155 153 151 153 153 139
150 145 141 142 147 156 166 170 172 174 175 171 168 170 175 176 172 173 172 171 172 172 171 173 172 170 169 170 170 166 166 167 164 165 169 167 162 158 155 154 153 148
144 136 136 141 145 150 159 166 171 175 175 173 170 171 176 179 179 181 180 176 175 175 175 177 176 174 175 179 179 171 166 169 171 172 174 173 171 168 163 164 164 159
151 152 160 166 169 167 165 166 168 174 180 180 176 175 177 180 182 187 188 185 184 183 182 183 183 182 183 184 183 180 176 174 177 180 180 176 175 175 172 172 175 171
153 163 173 174 177 178 177 178 176 180 191 192 186 183 182 182 186 191 194 194 194 192 190 190 187 187 188 187 185 187 189 186 186 190 192 190 186 186 187 189 190 186
157 168 177 176 177 179 182 187 184 185 194 196 191 190 189 188 190 193 196 197 197 195 193 191 190 190 192 192 191 193 197 200 202 204 204 207 208 206 207 211 211 205
170 177 180 177 179 181 184 189 188 186 191 194 193 193 195 196 195 197 199 199 197 196 194 193 196 201 204 202 201 203 205 209 214 216 218 221 223 223 222 223 220 214
182 186 186 184 186 184 183 188 193 192 192 194 196 198 200 202 202 201 202 203 201 198 196 198 203 210 212 213 215 215 213 217 223 225 227 229 229 227 224 222 217 212
187 190 192 195 195 189 184 190 198 200 198 199 202 204 203 203 202 201 203 205 205 202 200 203 206 210 214 218 223 222 222 226 229 228 232 237 235 229 222 215 205 199
191 196 198 201 199 190 185 187 191 196 197 198 199 199 197 196 195 197 199 202 205 206 205 206 208 210 213 217 220 222 223 224 225 229 235 238 233 223 212 204 193 187
190 197 201 204 204 198 193 188 183 184 185 186 190 191 191 191 191 193 196 199 202 205 207 208 208 209 211 215 219 221 222 223 227 231 230 227 220 205 194 189 185 179
180 189 192 197 201 203 205 203 199 192 184 180 186 190 192 194 194 196 199 203 206 210 212 211 211 211 214 218 221 223 225 226 224 219 213 208 202 193 185 184 185 179
168 172 173 181 192 199 205 208 208 205 200 193 193 197 201 203 204 206 209 211 212 214 215 215 214 214 217 221 222 222 221 216 208 204 202 199 195 190 185 185 187 183
150 155 156 174 193 203 208 211 212 213 212 210 207 207 211 213 211 213 216 216 215 216 218 219 221 223 223 223 220 214 206 201 202 204 205 203 196 190 189 188 188 186
63 68 75 109 192 217 228 228 230 229 221 217 215 212 212 215 218 222 226 227 226 226 227 230 232 230 223 215 206 198 194 197 202 201 195 191 187 186 189 189 188 187
53 53 51 49 42 14 308 270 266 263 248 234 230 225 220 221 224 228 231 234 235 236 236 236 231 219 208 199 192 191 194 196 194 186 178 174 171 173 179 181 179 180
46 47 46 43 37 33 29 14 334 293 268 253 244 238 234 231 229 229 230 232 235 237 236 230 217 203 195 190 190 195 199 196 190 185 178 171 168 167 168 171 172 173
38 38 38 35 31 30 33 31 25 11 325 277 257 252 251 245 237 234 233 232 230 227 221 213 203 196 194 196 199 204 203 195 192 191 184 175 173 173 171 172 174 176
Height
813 814 815 816 817 818 820 821 823 825 827 828 830 831 831 832 833 834 834 834 835 835 835 836 837 837 838 838 838 838 838 838 838 838 838 838 839 839 839 839 839 838
813 814 815 816 817 819 820 822 824 826 828 829 830 831 832 833 834 835 835 835 836 836 836 837 837 838 838 838 838 838 838 838 838 838 839 839 839 840 840 840 840 840
813 814 815 816 818 819 821 823 825 827 828 830 830 831 832 833 834 835 836 836 836 837 837 837 838 838 839 839 839 839 839 839 839 839 839 839 840 841 841 842 842 842
813 814 815 817 818 820 822 823 825 827 829 830 831 832 833 834 835 836 837 838 838 838 838 838 838 839 839 840 840 840 840 839 839 839 839 840 841 842 842 843 843 843
813 814 816 817 819 820 822 824 826 827 829 831 832 833 834 834 835 837 838 839 839 839 839 839 839 840 840 841 840 840 840 840 840 840 840 841 842 843 843 843 843 844
813 815 816 818 819 821 823 825 826 828 830 832 833 834 835 835 836 837 838 840 840 840 840 840 841 841 842 842 842 841 841 841 841 841 842 843 843 844 844 844 844 845
813 814 816 818 819 821 824 826 827 829 831 833 834 836 837 837 838 838 840 841 841 842 842 842 842 843 843 843 843 842 842 842 843 843 843 843 844 844 844 845 845 845
813 814 816 818 820 823 826 828 829 830 832 834 835 837 839 839 839 840 841 842 842 843 843 843 843 843 843 843 843 843 843 843 843 843 843 844 844 845 845 845 846 846
813 815 817 818 820 824 826 828 830 831 832 834 835 838 840 841 841 841 841 842 842 843 843 843 844 844 844 843 843 843 843 844 844 844 844 844 844 845 845 846 846 846
814 816 818 820 822 824 826 828 830 832 832 833 834 837 840 841 841 842 841 841 841 842 843 843 844 844 844 844 844 844 844 844 845 845 846 846 846 845 845 846 846 846
814 817 819 822 823 825 826 828 830 832 833 832 834 836 838 840 841 841 841 840 841 841 842 843 843 843 843 843 844 844 844 845 845 845 846 846 846 846 846 846 846 846
814 817 819 821 823 824 825 827 829 831 833 833 834 834 836 837 838 839 839 839 840 841 842 842 842 843 843 843 844 844 845 845 845 845 846 846 847 847 847 846 846 846
813 816 818 819 820 821 823 825 826 829 832 834 834 835 835 836 836 837 838 838 839 840 841 841 842 842 842 843 843 844 844 845 845 846 846 846 847 847 848 848 847 847
811 814 816 817 818 820 822 823 824 826 830 832 834 834 835 834 835 835 836 837 838 839 840 840 841 841 842 842 843 844 844 844 844 845 845 846 846 847 847 848 848 847
810 812 814 816 817 818 820 822 823 825 828 830 832 832 833 834 834 835 836 836 837 838 839 839 840 840 841 841 842 843 843 844 844 844 844 845 845 846 846 847 847 847
809 812 814 816 817 818 819 821 823 825 826 828 829 830 831 833 834 834 835 836 836 837 838 839 839 839 839 840 841 841 842 843 843 843 843 843 844 844 845 845 846 847
810 812 813 815 816 817 819 820 822 824 825 826 828 829 830 831 832 833 834 835 836 836 837 838 838 838 838 838 839 839 840 841 842 842 842 842 842 842 843 844 845 846
809 811 812 814 815 817 818 820 822 823 824 826 827 827 829 830 831 832 833 834 835 835 836 836 837 837 837 837 837 838 839 840 840 841 840 840 840 840 841 842 844 845
810 811 812 814 816 817 819 820 822 823 824 825 826 827 828 828 830 831 831 832 833 834 834 835 835 835 835 836 836 837 837 838 839 839 839 839 839 839 840 842 843 844
811 812 812 814 815 816 818 820 822 823 824 825 826 827 827 828 829 830 830 831 831 832 833 833 833 834 834 834 835 835 836 836 837 837 837 838 838 839 840 842 843 843
814 814 814 815 815 815 816 818 820 821 823 824 825 826 826 827 828 828 829 830 830 831 831 832 832 832 832 832 833 833 834 835 835 836 836 837 838 839 840 841 842 843
817 817 817 817 817 817 817 817 818 819 821 823 824 824 825 826 827 827 828 828 828 829 830 830 830 831 831 831 831 831 832 833 834 834 835 836 837 838 840 841 842 843
818 818 818 818 819 818 818 818 818 819 820 821 822 823 824 824 825 826 826 827 827 828 828 828 829 829 829 829 829 830 831 832 832 833 834 835 836 837 838 839 841 842
818 819 819 819 819 819 818 818 818 819 820 821 821 822 822 823 824 824 825 825 826 826 827 827 827 827 828 828 829 830 831 831 832 832 833 834 835 836 838 839 840 842
819 819 819 819 819 819 819 819 819 820 820 821 821 822 822 823 823 823 823 823 824 825 825 825 826 826 827 828 829 830 830 831 831 831 832 833 834 836 837 839 840 841
819 820 820 819 820 820 820 820 820 820 820 821 821 822 822 823 823 822 822 822 823 823 824 824 825 826 827 828 828 829 830 830 831 831 831 832 833 834 836 838 839 840